RH
20 20 19 19 18 18 17 17 16 15 14 12 10 8 7 7 6 6 5 6 6 7 7 7 8 8 8 7 7 7 7 6 6 5 5 5 5 5 6 7 9 9 10 13 22 31 36 37 38 39 40 41 42 46 51 55 58 60 62 64 64 63 61 56 53 51 48 45 48 49 48 48 47 48 49 47 45 45 45 48 51 51 52 54 54 53 51 51
21 21 20 20 19 19 18 18 17 16 15 15 14 12 10 8 7 7 6 6 5 6 6 7 7 7 7 7 7 7 7 7 6 5 6 6 5 4 5 6 8 10 10 10 15 25 35 42 43 42 42 42 42 47 51 54 57 58 58 61 62 61 59 56 53 51 48 47 49 50 49 48 48 50 51 48 46 45 43 43 46 49 50 51 53 53 52 54
23 22 21 21 20 20 19 19 18 17 17 16 15 14 13 11 9 8 7 6 6 6 6 6 7 7 7 7 7 7 7 7 6 6 6 6 6 5 5 5 7 9 10 10 11 17 29 37 39 42 43 42 43 47 50 52 57 57 59 60 60 60 58 56 54 53 51 50 50 51 51 50 50 51 50 48 47 45 42 42 44 46 49 52 54 52 51 56
24 23 23 22 21 21 21 20 19 19 18 17 16 16 15 13 11 9 8 7 6 6 6 6 6 6 7 7 7 7 7 7 6 6 6 6 6 5 5 5 6 7 8 10 10 13 22 30 35 40 41 40 43 48 49 51 55 57 60 61 59 58 58 56 54 53 52 52 51 52 51 49 50 51 50 49 49 47 44 44 43 42 46 49 52 50 49 55
26 25 24 23 22 22 21 21 20 20 19 19 18 17 16 15 14 12 10 9 8 7 6 6 6 6 6 6 7 7 7 8 6 7 7 7 6 5 5 5 5 6 7 9 10 13 20 28 35 39 40 39 41 46 48 50 53 55 57 60 60 58 58 56 53 51 50 50 51 51 49 47 48 48 49 49 46 44 43 43 42 41 41 42 48 50 48 51
27 26 25 24 23 22 22 21 20 20 20 19 19 18 17 16 15 14 13 11 9 8 7 6 6 6 6 6 6 6 7 7 7 8 9 8 6 5 5 5 6 5 6 8 11 16 22 30 35 37 40 40 40 43 46 49 52 53 55 60 62 60 59 58 53 50 48 48 48 49 47 46 46 44 46 47 42 41 41 41 42 42 40 41 47 51 48 47
27 26 26 25 24 24 22 22 21 20 20 19 19 18 18 17 16 15 14 13 11 9 8 7 6 6 6 6 6 6 7 7 7 9 10 8 7 7 5 5 5 5 5 6 12 19 25 30 33 35 39 40 41 43 43 46 50 53 55 56 59 59 59 58 54 50 48 46 44 45 44 43 42 40 44 44 41 43 41 40 42 43 42 42 46 49 47 46
27 26 26 25 25 24 24 23 22 21 20 19 19 18 18 18 17 16 15 15 13 11 9 8 7 6 6 6 5 5 6 7 7 8 8 7 7 8 7 5 6 6 5 6 9 15 23 29 31 33 37 38 41 43 43 43 46 52 55 54 56 57 56 56 53 49 47 44 42 42 41 40 39 39 42 42 42 45 43 42 43 44 45 44 44 48 47 45
25 25 24 24 24 24 24 23 23 22 22 21 19 18 18 18 18 18 16 16 15 13 11 9 7 6 6 5 5 5 5 6 7 8 7 7 7 7 8 7 7 6 5 6 7 10 20 28 30 31 34 37 39 40 41 42 43 48 51 51 53 53 53 52 50 48 46 43 40 40 40 38 38 39 40 41 41 44 45 45 45 46 47 46 45 46 47 44
22 22 22 22 22 22 23 23 23 23 23 22 20 19 19 19 19 18 17 16 15 14 13 10 8 7 6 5 5 5 5 7 7 8 8 7 7 7 8 8 7 6 6 8 8 10 16 20 26 29 31 36 38 37 38 40 41 44 45 45 48 48 49 49 48 47 47 44 41 40 39 37 38 39 39 41 42 43 45 46 47 47 47 49 46 44 47 46
19 19 20 20 20 20 20 21 21 22 23 23 22 20 20 20 20 19 18 17 15 14 13 11 9 8 6 6 6 5 5 7 8 8 8 7 7 7 7 8 7 6 6 8 9 9 10 12 21 27 26 30 36 35 35 37 40 41 40 41 42 42 43 45 44 45 44 43 42 40 38 38 40 40 39 42 45 45 45 48 50 48 48 50 47 43 45 46
17 17 17 18 18 18 18 19 19 21 22 22 22 22 22 21 20 20 18 16 15 14 13 12 11 9 8 7 6 5 5 6 7 8 8 7 8 7 7 7 7 6 6 8 8 7 8 10 17 23 22 24 30 31 31 33 36 37 37 38 39 37 39 42 41 41 41 39 40 41 38 40 42 41 41 43 46 47 48 51 52 51 49 50 49 45 44 45
15 15 15 15 16 16 16 17 17 18 20 21 22 22 22 22 21 20 18 17 16 15 15 13 12 10 10 8 6 5 5 6 7 8 8 8 8 8 8 8 7 6 6 6 7 7 8 9 13 20 21 22 25 27 28 30 32 33 33 35 37 35 36 40 39 38 38 38 40 40 36 37 41 41 42 45 47 49 52 54 53 53 52 51 51 47 44 44
13 13 13 13 13 14 14 15 16 16 18 19 21 22 23 23 22 20 20 19 19 18 16 15 14 12 11 9 6 6 6 5 6 7 8 8 8 8 8 9 8 7 8 9 10 10 11 11 14 20 22 22 24 25 26 27 29 31 30 31 33 34 36 38 37 36 37 37 39 38 34 34 37 39 43 47 50 52 53 55 55 55 56 55 52 49 45 42
11 11 11 11 11 11 12 13 13 14 15 17 20 22 23 23 22 22 22 22 21 20 18 18 16 14 14 11 7 7 7 6 6 6 7 8 8 8 8 9 9 8 10 13 13 13 14 15 17 21 22 22 23 22 24 25 28 31 31 31 31 32 36 36 35 36 36 37 37 36 34 33 34 37 43 49 52 54 54 56 57 57 57 57 56 52 48 44
10 11 10 10 10 9 10 11 11 12 12 15 19 21 22 22 22 24 24 24 24 22 21 20 18 15 15 14 10 8 8 7 6 6 7 8 8 9 9 10 12 11 12 15 14 14 16 18 18 18 19 19 21 20 21 22 25 29 31 33 32 31 35 35 33 34 35 34 34 36 35 33 33 36 42 49 52 55 55 57 59 58 57 56 57 56 53 48
10 10 10 10 9 9 9 9 10 10 10 14 17 18 20 21 23 24 25 26 26 26 24 21 20 19 16 14 12 10 9 7 7 7 7 8 8 9 10 11 13 12 14 15 14 14 17 17 16 15 15 15 16 16 18 20 21 25 29 32 32 32 35 35 32 33 34 32 32 35 34 32 33 36 41 47 50 54 56 58 59 59 59 56 55 57 56 52
11 11 11 10 10 9 9 9 9 8 10 14 15 16 18 19 21 23 26 28 28 28 27 25 25 24 18 15 14 13 11 9 9 9 8 8 8 9 10 11 13 15 16 17 15 15 16 16 14 14 13 13 14 14 15 17 18 21 27 30 31 32 34 34 32 31 32 32 30 33 34 32 33 37 41 44 48 51 54 57 59 60 62 60 58 59 58 54
10 10 10 10 10 9 9 9 8 9 12 13 13 14 15 17 20 23 27 29 28 26 26 27 27 23 18 17 16 15 14 12 11 10 10 10 9 10 11 11 13 16 17 16 15 15 15 15 15 14 12 12 12 12 13 14 16 18 23 28 31 32 33 33 33 31 31 31 29 30 33 32 32 36 39 42 45 48 51 56 59 60 63 63 61 61 57 53
9 9 10 9 9 9 9 9 8 10 12 11 13 13 13 16 17 19 23 24 23 23 23 25 25 22 21 20 18 17 15 14 12 11 11 12 11 11 12 13 16 17 16 15 15 14 14 14 14 12 11 11 10 11 12 13 15 17 21 25 28 31 31 32 33 32 31 30 28 30 33 32 31 34 37 39 42 45 49 53 58 60 63 64 63 61 55 52
8 8 8 9 8 8 8 9 9 10 10 10 12 13 15 17 16 18 22 19 18 21 21 22 22 22 23 21 20 20 18 15 13 11 12 12 13 12 13 15 16 17 15 15 15 14 14 14 12 10 9 10 10 10 11 12 13 15 18 22 26 27 29 31 33 33 32 29 27 29 32 31 30 31 35 37 40 44 46 49 54 59 61 63 63 61 57 53
8 8 8 8 7 7 8 8 8 10 9 10 12 14 16 18 18 20 23 20 18 19 19 20 21 21 22 22 21 21 20 18 14 12 13 13 13 12 12 14 15 15 15 15 16 16 15 13 11 9 9 9 10 10 11 11 12 13 15 19 23 24 27 31 32 33 33 29 27 27 28 29 30 31 33 36 39 43 44 46 50 54 57 62 63 61 60 55
8 8 8 8 6 6 6 7 8 9 9 9 13 15 17 18 18 19 22 22 19 17 17 19 20 20 21 22 21 20 20 19 16 14 13 14 14 13 12 12 13 14 15 15 15 17 16 13 10 9 9 9 9 10 10 10 11 11 13 15 16 18 25 31 32 32 32 29 26 26 26 27 32 33 33 37 38 40 43 45 47 49 52 58 61 60 59 55
8 7 8 8 6 6 6 6 7 9 9 11 14 15 16 17 16 18 22 21 17 16 16 17 18 19 20 21 21 20 21 20 18 15 13 14 15 14 13 11 12 13 14 14 14 14 13 11 10 10 10 10 10 9 10 11 11 11 11 11 12 15 20 26 31 32 32 30 26 25 25 25 30 33 34 37 39 38 41 43 45 47 48 53 58 59 60 57
8 8 8 7 7 5 5 6 6 8 12 13 14 14 15 15 15 18 23 20 16 15 14 15 17 18 19 20 20 21 21 20 19 16 14 14 15 15 13 12 12 12 12 14 14 14 12 11 11 12 11 11 10 10 9 9 10 10 9 9 11 14 16 21 28 32 33 32 28 27 26 23 27 32 34 37 38 38 40 41 43 45 45 49 54 58 59 58
9 9 8 8 7 6 6 7 7 9 12 12 12 12 13 14 15 19 21 19 15 12 12 14 16 16 17 19 20 21 21 20 19 18 15 15 16 16 14 13 12 11 12 13 15 15 12 11 12 13 12 11 11 11 9 8 11 11 9 8 10 12 15 19 25 30 32 32 30 29 27 24 25 29 33 36 37 37 39 41 41 42 43 47 50 54 57 57
11 10 10 9 7 7 7 9 9 9 12 12 10 10 12 12 15 20 20 18 17 14 12 15 15 15 16 17 19 21 21 20 20 19 17 16 17 17 16 15 13 12 12 13 15 15 12 11 12 14 13 12 12 11 10 9 11 11 9 8 9 10 13 17 22 26 29 29 29 28 26 24 23 25 30 34 36 37 39 40 40 40 42 46 47 50 54 56
12 12 12 10 8 9 10 11 12 12 13 13 11 10 10 11 15 20 19 18 17 15 14 15 14 14 15 16 18 19 19 19 19 20 19 18 18 17 17 16 14 13 12 13 15 13 12 12 12 12 13 13 11 10 9 9 10 11 9 7 8 9 11 15 19 22 25 26 26 25 25 24 22 22 28 33 34 36 38 39 39 40 43 45 47 49 51 54
12 12 13 12 11 11 12 13 14 14 14 13 12 10 10 12 16 20 20 17 14 15 15 15 14 14 16 18 18 19 19 18 18 19 21 21 19 18 17 17 16 15 13 12 13 13 12 12 11 11 13 12 10 9 8 8 10 10 9 9 9 10 11 13 15 17 20 22 20 20 22 22 20 20 26 31 32 33 35 37 38 40 43 45 47 49 50 51
12 12 14 15 14 13 13 13 15 15 15 14 13 11 11 15 17 20 22 17 14 16 15 15 16 15 16 17 17 18 19 19 17 18 21 22 21 19 18 17 17 17 17 14 13 13 13 12 13 12 12 10 9 9 9 9 10 10 10 11 11 11 12 13 13 14 17 18 17 18 19 19 19 18 21 26 28 30 33 35 37 39 41 45 47 48 48 49
13 12 14 17 18 16 14 14 14 15 15 15 14 12 15 18 19 22 23 15 12 17 17 17 18 17 17 18 17 17 18 19 17 18 21 22 22 20 18 18 19 20 20 17 15 14 14 14 14 13 12 11 11 11 10 10 10 11 11 11 12 13 13 13 14 14 15 17 15 15 16 17 18 16 16 18 21 26 31 32 35 38 39 43 45 46 47 47
13 11 13 17 18 16 16 15 14 15 15 14 14 15 17 21 22 23 19 12 14 19 19 19 20 19 19 19 18 17 17 18 17 17 20 21 22 21 19 19 20 22 22 20 17 16 14 15 15 14 13 12 13 13 12 12 12 12 11 11 13 15 15 14 15 14 14 14 13 13 14 15 16 15 14 15 17 22 28 30 32 36 38 41 43 44 46 47
13 11 11 14 16 15 15 14 13 13 13 13 14 15 18 25 26 22 16 14 19 22 21 21 20 21 21 21 21 18 17 17 17 17 18 21 23 22 20 20 20 21 22 21 20 19 17 16 15 15 14 13 13 13 14 13 13 12 12 12 13 14 15 15 15 14 12 12 11 11 12 13 14 12 11 11 14 19 26 30 31 33 36 38 40 43 44 45
13 11 10 14 16 14 13 12 11 11 11 13 15 16 21 27 25 22 21 22 22 21 21 22 22 22 22 21 22 21 19 18 18 18 18 20 23 23 22 22 22 23 22 22 22 20 19 19 16 15 14 13 13 13 12 12 12 12 11 12 13 13 13 13 13 12 10 11 12 11 11 12 12 12 10 10 11 15 21 27 30 32 33 34 37 39 40 40
12 11 12 15 15 14 13 12 11 10 11 13 14 17 24 27 24 25 30 30 26 24 23 22 23 24 23 22 23 23 21 20 20 19 18 18 21 24 24 23 23 24 23 23 22 20 20 19 16 15 14 13 13 13 12 12 13 13 11 13 14 12 11 11 11 11 9 10 12 12 11 10 10 11 10 10 10 12 16 23 29 31 32 33 35 36 37 38
13 11 13 15 15 14 14 12 11 10 12 13 13 16 23 25 26 33 37 34 31 30 26 22 22 24 25 25 25 26 24 22 21 20 18 19 21 24 26 26 24 25 24 23 22 20 20 19 16 15 15 14 14 14 13 13 14 14 13 13 13 11 11 11 12 12 11 11 12 12 10 9 9 9 9 9 10 11 13 19 25 29 31 33 34 35 36 36
14 12 13 16 17 16 15 14 12 12 13 15 14 16 21 23 28 36 39 35 33 32 31 27 24 25 30 30 28 28 27 24 23 22 20 20 21 24 27 27 26 27 26 25 22 20 21 19 17 17 17 15 14 15 14 13 14 15 15 13 12 12 13 13 14 14 12 11 12 11 9 8 9 9 8 9 9 10 11 14 20 26 30 31 32 33 34 35
18 15 16 20 20 18 19 18 15 15 17 17 15 18 24 26 29 33 36 35 33 33 34 33 29 27 31 35 34 31 29 27 26 24 22 22 23 24 26 27 28 27 27 27 24 21 20 20 18 17 17 16 16 17 17 16 14 15 14 13 14 15 15 15 16 15 13 12 12 11 9 9 8 8 8 9 9 9 10 12 15 21 27 29 29 31 33 34
22 19 21 24 22 21 24 23 20 19 20 19 21 26 30 30 29 33 37 36 33 35 36 37 36 33 33 37 37 35 32 31 30 28 26 26 26 25 25 27 28 27 27 27 25 22 20 21 20 17 16 17 17 18 19 18 16 15 15 14 15 16 16 16 15 14 13 13 12 11 10 8 7 7 6 7 8 9 10 11 13 17 23 27 28 29 30 31
28 28 28 27 26 25 24 23 22 23 26 28 30 31 33 34 32 34 38 37 35 37 40 41 39 37 36 35 36 37 36 34 33 32 31 30 28 27 27 27 28 28 28 27 25 24 22 21 21 18 16 17 18 18 18 18 17 16 16 15 15 15 15 16 15 13 12 13 13 12 10 8 8 7 5 5 6 8 9 10 11 13 18 22 25 25 26 28
34 35 32 29 29 28 24 22 24 28 32 36 36 33 34 36 35 34 37 39 36 36 40 41 40 39 38 36 35 36 37 37 35 34 34 33 31 30 29 28 27 28 29 29 28 27 25 24 22 20 17 17 18 17 17 16 16 15 15 15 14 14 15 16 17 14 12 12 13 12 11 9 8 8 6 5 5 6 7 9 9 10 13 16 19 19 21 24
40 38 33 32 33 29 26 29 34 35 38 41 42 40 39 39 38 37 37 39 39 38 38 39 40 40 38 37 36 36 38 39 39 38 38 36 34 33 31 30 28 29 30 31 30 28 29 28 25 22 19 18 17 17 16 16 15 15 15 15 14 14 14 15 16 15 12 13 13 12 12 11 10 10 9 7 7 6 7 8 8 8 9 11 14 16 19 22
47 44 37 36 36 32 32 38 42 41 41 43 44 45 44 42 40 39 39 43 45 44 44 43 41 40 39 38 39 38 38 40 41 41 41 40 38 35 34 32 31 30 31 33 32 29 30 31 29 25 23 20 18 18 17 16 16 17 16 16 15 15 14 14 15 15 14 13 13 13 13 12 11 12 11 9 9 8 7 8 8 8 8 9 11 13 16 19
51 49 43 40 38 37 41 46 47 45 45 46 46 46 46 45 43 41 40 46 53 53 52 50 47 44 41 39 39 39 39 40 43 44 42 42 41 38 36 35 34 33 32 34 35 31 31 33 32 30 29 27 24 21 19 17 17 18 18 17 16 16 14 14 16 18 15 13 13 13 13 11 11 14 13 10 10 9 8 9 9 9 9 10 10 12 13 16
51 50 48 47 46 46 51 53 51 50 49 50 49 49 50 49 50 47 42 47 59 61 59 58 56 51 46 43 41 40 38 39 42 45 45 43 42 40 38 37 37 36 34 33 34 34 34 36 34 32 32 31 30 28 24 21 20 20 18 17 16 16 15 15 16 18 18 16 14 13 12 10 10 12 12 10 10 10 10 10 10 10 9 8 9 11 12 13
53 50 50 53 56 58 58 57 56 56 54 54 53 54 55 54 54 53 48 49 56 61 63 64 62 59 55 51 47 43 41 39 40 43 46 47 45 42 41 40 39 39 37 34 33 35 36 36 36 35 34 34 34 33 29 26 24 23 20 19 18 17 16 16 17 17 18 18 16 13 12 12 10 10 11 11 10 11 11 10 11 11 9 7 7 8 9 10
56 56 57 61 64 64 62 60 60 60 58 58 58 59 61 59 56 56 53 51 55 59 64 67 66 65 66 62 56 50 46 43 40 40 43 46 47 45 42 42 41 41 40 36 34 35 36 36 36 36 35 34 33 32 30 28 28 26 24 22 20 18 17 17 17 19 19 18 15 14 15 13 11 10 11 11 12 12 12 11 11 10 9 8 8 7 7 8
58 62 66 71 71 68 66 65 64 64 61 62 64 64 64 64 63 62 60 58 59 59 63 69 70 70 71 69 65 59 53 49 46 44 43 44 47 47 45 43 43 42 40 37 36 37 38 38 38 36 34 32 30 29 29 30 30 29 27 24 22 20 19 18 18 19 18 17 15 17 19 15 11 10 10 11 12 12 11 11 11 10 8 8 8 8 7 7
60 64 70 74 74 71 71 71 70 68 65 66 69 69 68 69 69 68 67 65 62 59 62 68 71 70 71 71 70 66 63 59 54 49 45 44 45 47 47 46 44 43 42 40 39 39 40 41 39 35 33 31 29 29 29 30 30 29 27 25 23 22 21 21 20 18 17 17 14 16 19 16 11 10 9 9 11 11 10 11 10 9 9 8 7 7 7 7
63 66 69 73 75 72 72 74 73 71 67 69 74 73 71 72 72 72 71 68 67 66 65 67 69 71 72 73 73 71 66 62 59 54 49 48 47 47 48 48 47 46 45 43 42 41 41 41 38 34 34 32 29 29 29 29 29 29 27 25 23 23 22 21 21 19 18 18 14 14 18 16 11 11 10 10 11 11 11 12 10 9 9 9 9 8 7 7
64 67 69 74 75 71 71 73 71 71 71 72 76 76 74 74 74 75 72 68 72 77 74 70 71 73 75 75 75 75 70 63 59 56 52 49 48 48 49 48 49 50 49 47 45 44 42 40 37 36 36 34 31 31 30 28 28 27 26 25 23 23 22 21 20 19 19 19 16 15 17 15 13 12 12 12 12 12 12 13 12 10 9 10 10 8 8 7
62 66 69 74 75 71 71 72 70 72 74 73 74 76 76 76 76 77 76 73 75 82 81 75 71 74 80 80 75 74 74 69 62 58 56 52 48 47 49 49 48 50 52 50 48 46 44 41 39 38 38 36 33 32 30 30 29 27 24 24 23 21 20 20 20 19 19 18 17 16 16 14 14 13 13 12 12 12 12 12 12 11 11 11 10 8 8 8